www.pogodaiklimat.ru

Погода и климат >> Архив погоды >> Индонезия >> Бандунг


ПОГОДА в Бандунге

  • Прогноз погоды в Бандунге
  • Монитор погоды в Бандунге

АРХИВ ПОГОДЫ в Бандунге

Время (UTC), дата Ветер
(напр.,м/с)
 
Видим.   Явления Облачность Т
(С)
Тd
(С)
f
(%)
Тe
(С)
Тes
(С)
Комфортность P
(гПа)
Po
(гПа)
Тmin
(С)
Tmax
(С)
R
(мм)
R24
(мм)
S
(см)
03 17.03 ЮЗ 3 6000 м мгла 10/4 540 м
[Cu med, cong Ac As Ci fib]
+25.5 +20.1 72 +31 +36 очень
душно
1018.2 932.0
06 17.03 штиль 0 6000 м слаб. дождь 10/4 540 м
[Cu med, cong Ac As Ci fib]
+24.6 +20.4 77 +30 +38 очень
душно
1016.2 930.1 1
09 17.03 Ю 7 10 км 10/4 540 м
[Cu med, cong Ac As Ci fib]
+25.3 +17.8 63 +30 +30 душно 1014.7 928.8 0.0
12 17.03 штиль 0 8000 м мгла {дождь} 9/4 540 м
[Sc Ac As Ci fib]
+22.2 +19.3 84 +28 +28 душно 1016.3 930.2 +27.2 0.0
15 17.03 штиль 0 10 км 10/4 540 м
[Sc Ac As Ci fib]
+21.6 +19.4 87 +27 +27 душно 1017.8 931.6
18 17.03 штиль 0 8000 м мгла {дождь} 10/4 540 м
[Sc Ac As Ci fib]
+20.7 +18.6 88 +24 +24 комфорт 1016.5 930.4 0.0
21 17.03 С 2 8000 м мгла 6/4 540 м
[Sc Ac trans Ci fib]
+21.2 +18.8 86 +26 +26 душно 1014.5 928.6
00 18.03 штиль 0 7000 м мгла 3/1 540 м
[Sc Ci fib]
+21.0 +19.2 89 +25 +28 комфорт 1015.7 929.6 +19.4 1
03 18.03 С 3 10 км 4/3 540 м
[Cu med, cong Ac trans Ci fib]
+26.0 +19.2 66 +31 +40 очень
душно
1016.8 930.7
06 18.03 ЮЗ 4 8000 м 8/4 540 м
[Cu med, cong Ac As Ci fib]
+28.2 +19.2 58 +34 +39 очень
душно
1014.2 928.3
09 18.03 З 6 10 км 6/4 540 м
[Cu med, cong Ac trans Ci fib]
+26.2 +21.4 75 +33 +34 очень
душно
1012.4 926.6
12 18.03 СЗ 3 7000 м мгла 9/5 540 м
[Sc Ac As Ci fib]
+23.6 +20.8 84 +29 +29 душно 1014.4 928.5 +28.6
15 18.03 СЗ 1 6000 м мгла 9/5 540 м
[Sc Ac As Ci fib]
+23.6 +20.5 83 +29 +29 душно 1015.7 929.6
21 18.03 С 1 7000 м мгла 6/4 540 м
[Sc Ac trans Ci fib]
+21.4 +19.2 87 +26 +26 душно 1013.5 927.6
00 19.03 В 2 5000 м мгла 5/3 540 м
[Sc Ac trans Ci fib]
+22.2 +20.7 91 +29 +30 очень
душно
1014.5 928.6
03 19.03 СЗ 2 6000 м мгла 8/4 500 м
[Cu Sc Ac trans Ci fib]
+27.0 +19.9 65 +33 +40 очень
душно
1015.8 929.7
06 19.03 СЗ 3 6000 м мгла 10/5 480 м
[Cb cap Ac As Ci fib]
+27.2 +21.9 73 +35 +39 очень
душно
1012.9 927.0
09 19.03 ЮВ 2 2000 м гроза, ливневой дождь 10/6 480 м
[Cb cap Ac As Ci fib]
+21.8 +20.7 93 +28 +29 душно 1013.0 927.1 16
12 19.03 Ю 2 4000 м в посл. час дождь {гроза} 10/5 500 м
[Cu Sc Ac As Ci fib]
+21.6 +20.7 95 +27 +27 душно 1014.0 928.1 +28.6 5
15 19.03 штиль 0 6000 м мгла 8/4 540 м
[Sc Ac trans Ci fib]
+21.2 +19.9 92 +26 +26 душно 1014.9 928.9
18 19.03 С 2 2200 м дымка 8/4 540 м
[Sc Ac As Ci fib]
+20.8 +20.1 96 +26 +26 душно 1014.3 928.4
21 19.03 штиль 0 3000 м дымка 8/4 540 м
[Sc Ac As Ci fib]
+20.6 +19.9 96 +25 +25 комфорт 1013.8 927.9
00 20.03 штиль 0 1800 м дымка 9/5 480 м
[St Ac As Ci fib]
+20.6 +19.6 94 +25 +25 комфорт 1014.9 928.9 +19.6 21
03 20.03 штиль 0 3000 м мгла 4/3 540 м
[Cu hum Ac trans Ci fib]
+26.2 +21.1 74 +33 +48 очень
душно
1015.8 929.7
06 20.03 З 5 7000 м мгла 4/3 540 м
[Cu hum Ci fib]
+29.0 +21.0 62 +36 +43 очень
душно
1012.9 927.0
09 20.03 З 5 8000 м мгла 4/3 540 м
[Cu med, cong Ac trans Ci fib]
+28.4 +21.4 66 +36 +38 очень
душно
1011.8 926.0
12 20.03 З 3 7000 м мгла {гроза} 8/4 540 м
[Sc Ac trans Ci fib]
+24.0 +20.3 80 +30 +30 очень
душно
1013.9 928.0 +29.0 0.0
15 20.03 штиль 0 8000 м мгла 6/4 540 м
[Sc Ac trans Ci fib]
+22.9 +20.2 85 +30 +30 очень
душно
1015.7 929.6
18 20.03 штиль 0 8000 м мгла 5/3 540 м
[Sc Ac trans Ci fib]
+22.7 +20.1 85 +29 +29 очень
душно
1014.9 928.9
21 20.03 штиль 0 7000 м мгла 3/1 540 м
[Sc Ci fib]
+21.0 +19.7 92 +26 +26 душно 1013.1 929.2
00 21.03 В 2 5000 м мгла 1/0
[Ci fib]
+22.1 +20.0 88 +28 +30 душно 1015.1 929.1 +20.0
03 21.03 С 5 10 км 3/3 540 м
[Cu med, cong Ci fib]
+28.2 +20.3 62 +35 +41 очень
душно
1016.2 930.1
06 21.03 С 6 10 км 5/4 540 м
[Cu med, cong Ac trans Ci fib]
+27.8 +20.5 65 +35 +39 очень
душно
1013.6 927.7
09 21.03 С 8 2500 м гроза, ливневой дождь 9/6 500 м
[Cb cap Ac As Ci fib]
+22.6 +20.4 87 +29 +29 очень
душно
1012.5 927.0 5
12 21.03 С 4 6000 м слаб. дождь 9/5 500 м
[Cb cap Ac As Ci fib]
+22.8 +21.3 91 +30 +30 очень
душно
1015.0 929.0 +31.0 0.0
15 21.03 З 2 8000 м мгла 8/4 540 м
[Sc Ac As Ci fib]
+22.6 +20.4 87 +29 +29 очень
душно
1016.5 1030.4 1
21 21.03 штиль 0 6000 м мгла 8/4 540 м
[Sc Ac As Ci fib]
+21.4 +20.5 95 +27 +27 душно 1014.6 928.7
00 22.03 штиль 0 3000 м мгла 5/3 540 м
[Sc Ac trans Ci fib]
+21.9 +21.0 95 +28 +30 душно 1015.4 929.4 +20.4 6
03 22.03 З 4 8000 м мгла 4/3 540 м
[Cu hum Ci fib]
+27.3 +20.6 67 +34 +43 очень
душно
1016.1 930.0
06 22.03 З 8 10 км 3/1 540 м
[Cu hum Ci fib]
+29.4 +21.8 64 +38 +41 очень
душно
1013.6 927.7
09 22.03 З 5 10 км 9/5 500 м
[Cb cap Ac trans Ci fib]
+27.3 +21.9 72 +35 +36 очень
душно
1012.0 926.2
12 22.03 СЗ 3 10 км 9/4 540 м
[Sc Ac trans Ci fib]
+24.6 +20.8 79 +31 +31 очень
душно
1014.3 928.4 +29.8
15 22.03 СЗ 5 10 км 8/4 540 м
[Sc Ac trans Ci fib]
+24.0 +20.6 81 +30 +30 очень
душно
1016.2 930.1
18 22.03 З 3 8000 м мгла 9/4 540 м
[Sc Ac trans Ci fib]
+23.2 +20.6 85 +31 +31 очень
душно
1015.5 929.5
21 22.03 З 4 7000 м мгла 10/4 540 м
[Sc Ac As Ci fib]
+23.2 +19.8 81 +30 +30 очень
душно
1014.3 928.4
00 23.03 СЗ 2 9000 м мгла 6/4 540 м
[Sc Ac trans Ci fib]
+23.4 +20.3 83 +31 +32 очень
душно
1015.4 929.4 +20.8
03 23.03 З 4 10 км 6/4 540 м
[Cu med, cong Ac trans Ci fib]
+27.0 +20.9 69 +34 +40 очень
душно
1015.5 929.5
06 23.03 З 9 6000 м 8/0 300 м
[Cu Sc Ac und Cs]
+28.4 +20.2 61 +35 +36 очень
душно
1013.3 927.4
09 23.03 СВ 5 1800 м гроза, ливневой дождь 10/6 500 м
[Cb cap Ac As]
+22.6 +21.4 93 +30 +30 очень
душно
1015.2 929.2 1
12 23.03 СЗ 5 7000 м мгла 6/4 540 м
[Sc Ac trans Ci fib]
+24.8 +19.2 71 +30 +30 душно 1013.7 927.8 +29.2
15 23.03 СЗ 5 8000 м мгла 5/4 540 м
[Sc Ac trans Ci fib]
+24.2 +19.8 76 +29 +29 душно 1015.6 929.5
21 23.03 С 5 8000 м мгла 4/3 540 м
[Sc Ac trans Ci fib]
+22.4 +19.9 86 +29 +29 очень
душно
1013.6 927.7
00 24.03 С 4 10 км 5/3 500 м
[Sc Ac trans Ci fib]
+22.6 +19.7 84 +29 +30 очень
душно
1017.4 928.8 +21.0

 

Местоположение метеостанции Бандунг (Индонезия): широта -6.90 долгота 107.58 высота над уровнем моря 740 м.

В архиве по умолчанию представлена погода в Бандунге за последнюю неделю. Архивные данные за месяц целиком и за предыдущие месяцы, начиная с января 2011 года, Вы можете получить, выбрав интересующий диапазон дат из раскрывающегося списка и нажав кнопку "Ввод!".


*Определитесь, кто Вы:
робот инопланетянин человек

Внимание! Время в таблицах - всемирное. Для получения местного времени необходимо прибавить поправку, которая равна 7 ч.

Смотрите также архив погоды в соседних городах и на ближайших метеорологических станциях:

Погода в Цитеко (Индонезия) (75 км)
Погода в Сиребоне (Индонезия) (77 км)
Погода в Джакарте (Индонезия) (115 км)
Погода в Джакарта порту (Индонезия) (119 км)
Погода в Чуруге (Индонезия) (127 км)
Погода в Аэропорту Сукарно-Хатта (Индонезия) (134 км)
Погода в Тегале (Индонезия) (173 км)
Погода в Серанге (Индонезия) (182 км)
Погода в Чилачапе (Индонезия) (183 км)
Погода в Аэропорту Ахмад Яни (Индонезия) (309 км)

Пояснения к столбцам:

Ветер - указаны скорость ветра в м/с - средняя за 10 мин, порывы в срок и между сроками (в фигурных скобках) и направление, откуда дует ветер: С - северный, СВ - северо-восточный, В - восточный, ЮВ - юго-восточный, Ю - южный, ЮЗ - юго-западный, З - западный, СЗ - северо-западный.
Видимость - горизонтальная дальность видимости в метрах или километрах. При видимости от 1 до 10 км при отсутствии осадков обычно наблюдается дымка, при ухудшении видимости до 1 км и менее - туман. В сухую погоду видимость может ухудшаться дымом, пылью или мглою.
Явления - указаны атмосферные явления, наблюдавшиеся в срок или в последний час перед сроком; фигурными скобками обозначены явления, наблюдавшиеся между сроками (за 1-3 часа до срока); квадратными скобками обозначены град или гололедные отложения с указанием их диаметра в мм.
Облачность - указаны через наклонную черту общая и нижняя облачность в баллах и высота нижней границы облаков в метрах; квадратными скобками обозначены формы облаков: Ci - перистые, Cs - перисто-слоистые, Cc - перисто-кучевые, Ac - высококучевые, As - высокослоистые, Sc - слоисто-кучевые, Ns - слоисто-дождевые, Cu - кучевые, Cb - кучево-дождевые. Подробнее классификацию облаков см. в Атласе облаков (PDF).
T - Температура воздуха - температура, измеренная на высоте 2 м над землей.
Td - Температура точки росы - температура, при понижении до которой содержащийся в воздухе водяной пар достигнет насыщения.
f - Относительная влажность воздуха - влажноcть воздуха, измеренная на высоте 2 м над землей.
Te - Эффективная температура - температура, которую ощущает одетый по сезону человек в тени. Характеристика душности погоды. При расчете учитывается влияние влажности воздуха и скорости ветра на теплоощущения человека.
Tes - Эффективная температура на солнце - температура, которую ощущает человек, с поправкой на солнечный нагрев. Характеристика знойности погоды. Зависит от высоты солнца над горизонтом, облачности и скорости ветра. Ночью, в пасмурную погоду, а также при ветре 12 м/с и более поправка равна нулю.
P - Атмосферное давление - приведенное к уровню моря атмосферное давление.
Po - Атмосферное давление - измеренное на уровне метеостанции атмосферное давление.
Tmin - Минимальная температура - минимум температуры воздуха на высоте 2 м над землей.
Tmax - Максимальная температура - максимум температуры воздуха на высоте 2 м над землей.
R - Количество осадков - Количество выпавших осадков за период времени, мм. При наведении курсора мыши на число - период времени, за который выпало указанное количество осадков.
R24 - Количество осадков - Количество выпавших осадков за 24 часа, мм.
S - Снежный покров - Высота снежного покрова, см. При наведении курсора мыши на число - состояние снежного покрова и степень покрытия местности в баллах.